Location: Unspecified
(49.9820°N, 20.4363°E)
Time: 22:28:36
(UTC+02:00)

ISS - Pass Details

Date: 14 July 2018
Orbit: 402 x 408 km, 51.6° (Epoch: 20 July)

Event Time Altitude Azimuth Distance (km) Brightness Sun altitude
Exits shadow 02:40:20 12° 266° (W) 1,370 -1.5 -13.8°
Maximum altitude 02:43:23 71° 350° (N) 436 -3.6 -13.6°
Drops below altitude 10° 02:46:41 10° 76° (ENE) 1,474 -0.4 -13.3°
Sets 02:48:47 0° 78° (ENE) 2,337 0.7 -13.2°
